Location: Cantaing
(50.1487°N, 3.1675°E)
Time: 16:02:38
(UTC+00:00)

Timation 1 Rocket - Pass Details

Date: 14 January 2026
Orbit: 895 x 908 km, 70.0° (Epoch: 18 February)

Event Time Altitude Azimuth Distance (km) Brightness Sun altitude
Exits shadow 05:47:40 20° 320° (NW) 1,953 5.6 -17.5°
Maximum altitude 05:51:47 63° 246° (WSW) 1,012 4.3 -16.9°
Drops below altitude 10° 05:57:40 10° 166° (SSE) 2,585 7.1 -16.0°
Sets 06:00:11 0° 163° (SSE) 3,523 7.9 -15.6°
